Weather History for KSYF - December, 2013

Change the Weather History Date:

Monday, December 23, 2013

  Actual Average Record
Temperature  
Mean Temperature 24 °F -  
Max Temperature 34 °F 41 °F 41 °F (2012)
Min Temperature 13 °F 14 °F 8 °F (2012)
Degree Days  
Heating Degree Days 42    
Moisture  
Dew Point 15 °F    
Average Humidity 76    
Maximum Humidity 88    
Minimum Humidity 57    
Precipitation  
Precipitation 0.00 in - - ()
Sea Level Pressure  
Sea Level Pressure 30.29 in    
Wind  
Wind Speed 11 mph (South)    
Max Wind Speed 18 mph    
Max Gust Speed 25 mph    
Visibility 9 miles    
Events Snow    
Averages and records for this station are not official NWS values.
T = Trace of Precipitation, MM = Missing Value Source: NWS Daily Summary

Daily Weather History Graph

Daily Weather History Graph

Search for Another Location

Airport or City:

Trip Planner

Search our weather history database for the weather conditions in past years. The results will help you decide how hot, cold, wet, or windy it might be!

Date:

Astronomy

Dec. 23, 2013 Rise Set
Actual Time 8:05 AM CST 5:27 PM CST
Civil Twilight 7:35 AM CST 5:57 PM CST
Nautical Twilight 7:01 AM CST 6:31 PM CST
Astronomical Twilight 6:28 AM CST 7:04 PM CST
Moon 11:38 PM CST (12/23) 11:32 AM CST (12/23)
Length of Visible Light 10h 22m
Length of Day
9h 21m
Waning Gibbous, 68% of the Moon is Illuminated
Dec 23
Waning Gibbous
Dec 25
Last Quarter
Jan 1
New
Jan 7
First Quarter
Jan 15
Full

Hourly Weather History & Observations

Time (CST) Temp. Windchill Dew Point Humidity Pressure Visibility Wind Dir Wind Speed Gust Speed Precip Events Conditions
12:15 AM 22.6 °F 9.6 °F 19.6 °F 88% 30.21 in 0.8 mi NE 15.0 mph - N/A Snow Snow
12:35 AM 19.8 °F 4.5 °F 16.5 °F 87% 30.22 in 4.0 mi NE 18.4 mph - N/A Snow Light Snow
12:55 AM 18.7 °F 5.1 °F 15.3 °F 87% 30.24 in 10.0 mi NE 13.8 mph - N/A   Overcast
1:15 AM 18.1 °F 5.0 °F 14.7 °F 86% 30.25 in 10.0 mi NE 12.7 mph - N/A   Overcast
1:35 AM 17.6 °F 4.3 °F 14.4 °F 87% 30.26 in 10.0 mi NNE 12.7 mph - N/A   Overcast
1:55 AM 17.8 °F 4.0 °F 14.7 °F 88% 30.28 in 10.0 mi NNE 13.8 mph - N/A   Overcast
2:15 AM 17.6 °F 5.0 °F 14.7 °F 88% 30.28 in 10.0 mi NE 11.5 mph - N/A   Overcast
2:35 AM 17.6 °F 5.7 °F 14.5 °F 88% 30.28 in 10.0 mi NE 10.4 mph - N/A   Overcast
2:55 AM 17.2 °F 4.5 °F 13.8 °F 86% 30.31 in 10.0 mi NE 11.5 mph - N/A   Overcast
3:15 AM 17.2 °F 7.8 °F 14.0 °F 87% 30.31 in 10.0 mi NE 6.9 mph - N/A   Overcast
3:35 AM 17.1 °F 5.8 °F 14.0 °F 88% 30.32 in 10.0 mi NNE 9.2 mph - N/A   Overcast
3:55 AM 16.5 °F 6.0 °F 13.5 °F 88% 30.33 in 7.0 mi North 8.1 mph - N/A   Overcast
4:15 AM 16.2 °F 4.7 °F 13.1 °F 88% 30.32 in 10.0 mi NNE 9.2 mph - N/A   Overcast
4:35 AM 16.0 °F 5.3 °F 12.7 °F 87% 30.34 in 10.0 mi NNE 8.1 mph - N/A   Overcast
4:55 AM 15.8 °F 5.1 °F 12.7 °F 88% 30.35 in 10.0 mi NNE 8.1 mph - N/A   Overcast
5:15 AM 15.8 °F 5.1 °F 12.2 °F 86% 30.34 in 10.0 mi NE 8.1 mph - N/A   Overcast
5:35 AM 15.1 °F 4.2 °F 11.5 °F 86% 30.34 in 7.0 mi NNE 8.1 mph - N/A   Overcast
5:55 AM 13.8 °F 1.8 °F 9.5 °F 83% 30.35 in 10.0 mi NNE 9.2 mph - N/A   Overcast
6:15 AM 13.6 °F 1.6 °F 9.3 °F 83% 30.36 in 10.0 mi NNE 9.2 mph - N/A   Overcast
6:35 AM 13.5 °F 4.4 °F 8.8 °F 82% 30.36 in 10.0 mi NE 5.8 mph - N/A   Overcast
6:55 AM 13.1 °F 5.4 °F 7.7 °F 79% 30.37 in 10.0 mi NE 4.6 mph - N/A   Overcast
7:15 AM 13.1 °F 7.1 °F 7.9 °F 80% 30.37 in 10.0 mi NE 3.5 mph - N/A   Overcast
7:35 AM 13.1 °F 5.4 °F 8.2 °F 81% 30.37 in 10.0 mi ENE 4.6 mph - N/A   Overcast
7:55 AM 13.3 °F - 7.7 °F 78% 30.38 in 10.0 mi Calm Calm - N/A   Overcast
8:15 AM 13.5 °F - 8.1 °F 79% 30.39 in 10.0 mi Calm Calm - N/A   Overcast
8:35 AM 13.8 °F - 8.4 °F 79% 30.39 in 10.0 mi Calm Calm - N/A   Overcast
8:55 AM 14.0 °F 8.2 °F 7.5 °F 75% 30.39 in 10.0 mi East 3.5 mph - N/A   Overcast
9:15 AM 14.2 °F 8.4 °F 8.2 °F 77% 30.40 in 10.0 mi ESE 3.5 mph - N/A Snow Light Snow
9:35 AM 14.7 °F 7.3 °F 8.6 °F 77% 30.40 in 10.0 mi SSE 4.6 mph - N/A Snow Light Snow
9:55 AM 14.9 °F 6.1 °F 8.6 °F 76% 30.41 in 7.0 mi SSE 5.8 mph - N/A Snow Light Snow
10:15 AM 15.8 °F 5.1 °F 9.3 °F 76% 30.41 in 10.0 mi South 8.1 mph - N/A   Overcast
10:35 AM 16.3 °F 5.7 °F 10.9 °F 79% 30.42 in 10.0 mi South 8.1 mph - N/A Snow Light Snow
10:55 AM 17.4 °F 4.7 °F 12.9 °F 83% 30.41 in 4.0 mi SSW 11.5 mph - N/A Snow Light Snow
11:15 AM 17.8 °F 6.6 °F 13.3 °F 83% 30.41 in 4.0 mi SSW 9.2 mph - N/A Snow Light Snow
11:35 AM 18.3 °F 4.6 °F 14.2 °F 84% 30.40 in 7.0 mi South 13.8 mph - N/A Snow Light Snow
11:55 AM 19.0 °F 7.5 °F 14.9 °F 84% 30.39 in 7.0 mi SSW 10.4 mph - N/A   Overcast
12:15 PM 20.3 °F 7.2 °F 15.8 °F 83% 30.38 in 10.0 mi SSW 13.8 mph - N/A   Overcast
12:35 PM 21.4 °F 8.5 °F 16.2 °F 80% 30.37 in 10.0 mi SW 13.8 mph - N/A   Overcast
12:55 PM 22.6 °F 10.1 °F 16.5 °F 77% 30.36 in 10.0 mi SW 13.8 mph - N/A   Overcast
1:15 PM 23.7 °F 11.5 °F 17.6 °F 77% 30.35 in 10.0 mi SSW 13.8 mph 20.7 mph N/A   Overcast
1:35 PM 24.4 °F 11.9 °F 18.0 °F 76% 30.33 in 10.0 mi SSW 15.0 mph 25.3 mph N/A   Overcast
1:55 PM 26.1 °F 14.5 °F 19.0 °F 75% 30.31 in 10.0 mi South 13.8 mph - N/A   Mostly Cloudy
2:15 PM 28.4 °F 17.0 °F 20.3 °F 72% 30.29 in 10.0 mi SSW 15.0 mph - N/A   Clear
2:35 PM 30.0 °F 19.1 °F 20.8 °F 69% 30.28 in 10.0 mi SSW 15.0 mph - N/A   Clear
2:55 PM 31.8 °F 21.4 °F 21.2 °F 65% 30.27 in 10.0 mi SSW 15.0 mph 20.7 mph N/A   Scattered Clouds
3:15 PM 32.0 °F 21.2 °F 20.8 °F 63% 30.26 in 10.0 mi SW 16.1 mph 19.6 mph N/A   Mostly Cloudy
3:35 PM 32.7 °F 23.0 °F 20.8 °F 62% 30.26 in 10.0 mi SSW 13.8 mph - N/A   Mostly Cloudy
3:55 PM 33.6 °F 25.0 °F 20.7 °F 59% 30.26 in 10.0 mi SW 11.5 mph - N/A   Scattered Clouds
4:15 PM 33.8 °F 24.8 °F 20.8 °F 59% 30.25 in 10.0 mi SSW 12.7 mph - N/A   Clear
4:35 PM 34.7 °F 26.4 °F 20.7 °F 57% 30.25 in 10.0 mi SW 11.5 mph - N/A   Clear
4:55 PM 33.8 °F 26.4 °F 20.7 °F 59% 30.24 in 10.0 mi SSW 9.2 mph - N/A   Clear
5:15 PM 32.7 °F 24.5 °F 20.3 °F 60% 30.24 in 10.0 mi SSW 10.4 mph - N/A   Clear
5:35 PM 30.7 °F 22.6 °F 19.4 °F 63% 30.24 in 10.0 mi South 9.2 mph - N/A   Clear
5:55 PM 27.3 °F 17.7 °F 18.3 °F 69% 30.24 in 10.0 mi South 10.4 mph - N/A   Clear
6:15 PM 27.1 °F 17.5 °F 17.6 °F 67% 30.23 in 10.0 mi South 10.4 mph - N/A   Clear
6:35 PM 25.7 °F 14.6 °F 16.7 °F 69% 30.23 in 10.0 mi South 12.7 mph - N/A   Clear
6:55 PM 25.2 °F 14.4 °F 16.5 °F 70% 30.23 in 10.0 mi South 11.5 mph - N/A   Clear
7:15 PM 25.0 °F 14.8 °F 15.8 °F 68% 30.23 in 10.0 mi South 10.4 mph - N/A   Clear
7:35 PM 25.0 °F 13.6 °F 15.6 °F 68% 30.22 in 10.0 mi SSW 12.7 mph - N/A   Clear
7:55 PM 25.5 °F 12.4 °F 15.3 °F 65% 30.22 in 10.0 mi SSW 17.3 mph - N/A   Clear
8:15 PM 25.7 °F 13.1 °F 14.9 °F 64% 30.22 in 10.0 mi SSW 16.1 mph - N/A   Clear
8:35 PM 24.8 °F 12.4 °F 14.4 °F 65% 30.21 in 10.0 mi South 15.0 mph - N/A   Clear
8:55 PM 23.9 °F 12.3 °F 14.0 °F 66% 30.21 in 10.0 mi South 12.7 mph - N/A   Clear
9:15 PM 21.7 °F 13.2 °F 13.8 °F 72% 30.21 in 10.0 mi SSW 6.9 mph - N/A   Clear
9:35 PM 22.1 °F 12.0 °F 14.7 °F 73% 30.20 in 10.0 mi South 9.2 mph - N/A   Clear
9:55 PM 22.3 °F 13.0 °F 14.9 °F 73% 30.20 in 10.0 mi SSW 8.1 mph - N/A   Clear
10:15 PM 22.5 °F 13.2 °F 14.9 °F 73% 30.18 in 10.0 mi SSW 8.1 mph - N/A   Clear
10:35 PM 23.9 °F 15.8 °F 15.8 °F 71% 30.18 in 10.0 mi SSW 6.9 mph - N/A   Clear
10:55 PM 24.8 °F 12.9 °F 15.8 °F 69% 30.17 in 10.0 mi SW 13.8 mph - N/A   Clear
11:15 PM 24.8 °F 13.4 °F 15.6 °F 68% 30.17 in 10.0 mi SSW 12.7 mph - N/A   Clear
11:35 PM 23.9 °F 15.0 °F 15.3 °F 70% 30.16 in 10.0 mi SSW 8.1 mph - N/A   Clear
11:55 PM 23.2 °F 14.1 °F 14.9 °F 71% 30.15 in 10.0 mi SSW 8.1 mph - N/A   Clear